This demonstration page uses our WeatherBlox Daily Observations layout. Learn more.

41.55636, -103.73856

Hourly Observations for January 18, 2019

Temp ( °F °C ) Dew Point ( °F °C ) Humidity (%) Winds ( mph kmh ) Pressure ( in mb ) Visibility ( mi km ) Precip ( " mm )
12:53 am 00:53 Cloudy 36 2.2 30 -1.1 79 79 SE 7 11 29.68 1005 10 16.09344 0 0
1:53 am 01:53 Cloudy 33 0.6 29 -1.7 85 85 ESE 7 11 29.71 1006 10 16.09344 0 0
2:53 am 02:53 Mostly Cloudy 31 -0.6 29 -1.7 92 92 ESE 7 11 29.71 1006 10 16.09344 0 0
3:53 am 03:53 Clear 27 -2.8 27 -2.8 100 100 ESE 8 13 29.71 1006 10 16.09344 0 0
4:40 am 04:40 Partly Cloudy 25 -4 25 -4 100 100 ESE 3 6 29.85 1011 8 12.874752 0 0
4:53 am 04:53 Mostly Cloudy 23 -5 23 -5 100 100 E 5 7 29.74 1007 7 11.265408 0 0
5:00 am 05:00 Mostly Cloudy with Mist and Fog 25 -4 25 -4 100 100 SE 7 11 29.85 1011 1.5 2.414016 0 0
5:08 am 05:08 Mostly Cloudy with Freezing Fog 26 -3.3 26 -3.3 100 100 ESE 8 13 29.85 1011 0.5 0.804672 0 0
5:15 am 05:15 Mostly Cloudy with Freezing Fog 26 -3.3 26 -3.3 100 100 ESE 10 17 29.85 1011 0.25 0.402336 0 0
5:34 am 05:34 Mostly Cloudy with Freezing Fog 27 -3 27 -3 100 100 ESE 6 9 29.85 1011 0.25 0.402336 0 0
5:53 am 05:53 Mostly Cloudy with Freezing Fog 26 -3.3 26 -3.3 100 100 ENE 5 7 29.74 1007 0.25 0.402336 0 0
6:22 am 06:22 Mostly Cloudy with Freezing Fog 27 -2.8 27 -2.8 100 100 Calm 29.85 1011 0.25 0.402336 0 0
6:32 am 06:32 Mostly Cloudy with Freezing Fog 27 -3 27 -3 100 100 Calm 29.85 1011 0.5 0.804672 0 0
6:40 am 06:40 Cloudy with Mist and Fog 27 -2.8 26 -3.3 96 96 WNW 3 6 29.85 1011 2 3.218688 0 0
6:48 am 06:48 Cloudy with Mist and Fog 27 -3 27 -3 100 100 W 3 6 29.85 1011 0.75 1.207008 0 0
6:53 am 06:53 Mostly Cloudy with Freezing Fog 25 -3.9 25 -3.9 100 100 Calm 29.74 1007 0.5 0.804672 0 0
7:00 am 07:00 Mostly Cloudy with Freezing Fog 25 -4 25 -4 100 100 W 5 7 29.91 1013 0.25 0.402336 0 0
7:15 am 07:15 Mostly Cloudy with Freezing Fog 24 -4.4 24 -4.4 100 100 W 5 7 29.91 1013 0.5 0.804672 0 0
7:23 am 07:23 Cloudy with Mist and Fog 24 -4.4 24 -4.4 100 100 Calm 29.94 1014 2 3.218688 0 0
7:37 am 07:37 Cloudy with Mist and Fog 27 -3 27 -3 100 100 NNW 6 9 29.91 1013 1.25 2.01168 0 0
7:50 am 07:50 Cloudy with Mist and Fog 27 -3 27 -3 100 100 W 3 6 29.94 1014 3 4.828032 0 0
7:53 am 07:53 Cloudy with Mist and Fog 26 -3.3 26 -3.3 100 100 W 5 7 29.83 1010 3 4.828032 0 0
8:10 am 08:10 Cloudy with Mist and Fog 28 -2 28 -2 100 100 VRB 6 9 29.97 1015 6 9.656064 0 0
8:20 am 08:20 Cloudy 28 -2 28 -2 100 100 NNW 14 22 29.97 1015 9 14.484096 0 0
8:31 am 08:31 Cloudy 28 -2.2 28 -2.2 100 100 NNW 13 20 29.97 1015 10 16.09344 0 0
8:53 am 08:53 Cloudy 27 -2.8 27 -2.8 100 100 N 13 20 29.91 1013 10 16.09344 0 0
9:53 am 09:53 Cloudy 25 -3.9 25 -3.9 100 100 N 13 20 29.97 1015 10 16.09344 0 0
10:53 am 10:53 Cloudy with Light Snow 25 -3.9 23 -5 92 92 NNE 16 26 30 1016 5 8.04672 0.001 0.001
11:21 am 11:21 Cloudy 25 -3.9 24 -4.4 96 96 N 13 20 30.09 1019 10 16.09344 0.001 0.001
11:40 am 11:40 Cloudy 27 -3 25 -4 93 93 N 12 19 30.09 1019 10 16.09344 0 0
11:53 am 11:53 Cloudy 25 -3.9 23 -5 92 92 N 9 15 30 1016 10 16.09344 0.001 0.001
12:26 pm 12:26 Cloudy 27 -3 25 -4 93 93 N 10 17 30.09 1019 10 16.09344 0 0
12:53 pm 12:53 Cloudy 28 -2.2 25 -3.9 88 88 N 10 17 30 1016 10 16.09344 0 0
1:44 pm 13:44 Cloudy 30 -1 25 -4 80 80 N 12 19 30.09 1019 10 16.09344 0 0
1:53 pm 13:53 Cloudy 31 -0.6 26 -3.3 82 82 N 15 24 30 1016 10 16.09344 0 0
2:53 pm 14:53 Mostly Sunny 35 1.7 26 -3.3 70 70 NNW 9 15 30.03 1017 10 16.09344 0 0
3:53 pm 15:53 Mostly Cloudy 33 0.6 26 -3.3 75 75 N 10 17 30.09 1019 10 16.09344 0 0
4:18 pm 16:18 Mostly Cloudy 30 -1 25 -4 80 80 N 8 13 30.15 1021 10 16.09344 0 0
4:26 pm 16:26 Mostly Cloudy 31 -0.6 25 -3.9 79 79 N 7 11 30.15 1021 10 16.09344 0 0
4:53 pm 16:53 Partly Cloudy 30 -1.1 26 -3.3 85 85 N 10 17 30.12 1020 10 16.09344 0 0
5:53 pm 17:53 Cloudy 26 -3.3 23 -5 88 88 NNE 6 9 30.15 1021 10 16.09344 0 0
6:53 pm 18:53 Mostly Cloudy 22 -5.6 21 -6.1 96 96 NNE 3 6 30.21 1023 10 16.09344 0 0
7:53 pm 19:53 Cloudy 33 0.6 27 -2.8 78 78 NNW 14 22 30.15 1021 10 16.09344 0 0
8:53 pm 20:53 Cloudy 34 1.1 27 -2.8 76 76 NW 10 17 30.18 1022 10 16.09344 0 0
9:53 pm 21:53 Cloudy 25 -3.9 21 -6.1 85 85 NE 7 11 30.24 1024 10 16.09344 0 0
10:09 pm 22:09 Cloudy 25 -3.9 22 -5.6 88 88 ENE 6 9 30.3 1026 10 16.09344 0 0
10:53 pm 22:53 Cloudy 22 -5.6 19 -7.2 89 89 E 8 13 30.27 1025 10 16.09344 0 0
11:53 pm 23:53 Cloudy 20 -6.7 19 -7.2 96 96 ESE 8 13 30.3 1026 8 12.874752 0 0

Powered by AerisWeather